Tracking 27419 objects as of 10-Jun-2023
HD Live streaming from Space Station
objects crossing your sky now

CZ-2C DEB

Track CZ-2C DEB now!
10-day predictions


NORAD ID: 37733
Int'l Code: 2011-030D
Perigee: 687.2 km
Apogee: 896.2 km
Inclination: 98.4 °
Period: 100.5 minutes
Semi major axis: 7162 km
RCS: 0.096 m2 (small)
Launch date: July 6, 2011
Source: People's Republic of China (PRC)
Launch site: Jiuquan Satellite Launch Center, China (JSC)

Note: This is SATELLITE DEBRIS
Your satellite tracking list
Your tracking list is empty




NASA's NSSDC Master Catalog

Two Line Element Set (TLE):
1 37733U 11030D   23160.72252497  .00002446  00000-0  82371-3 0  9998
2 37733  98.4469 114.0239 0145909 290.3971 188.4099 14.32140765621139
Source of the keplerian elements: AFSPC